Change the Weather History Date:

Thursday, July 4, 2013

  Actual Average Record
Temperature  
Mean Temperature 69 °F -  
Max Temperature 70 °F - 100 °F (1970)
Min Temperature 68 °F - 57 °F (1958)
Cooling Degree Days 4    
Month to date cooling degree days 31  
Year to date cooling degree days 635  
Since 1 June cooling degree days 385  
Growing Degree Days 18 (Base 50)    
Moisture  
Dew Point 66 °F    
Average Humidity 90    
Maximum Humidity 94    
Minimum Humidity 83    
Precipitation  
Precipitation 0.97 in - 1.74 in (1989)
Month to date precipitation 2.49  
Year to date precipitation 26.71  
Sea Level Pressure  
Sea Level Pressure 30.10 in    
Wind  
Wind Speed 9 mph (SE)    
Max Wind Speed 24 mph    
Max Gust Speed 40 mph    
Visibility 9 miles    
Events      
T = Trace of Precipitation, MM = Missing Value Source: NWS Daily Summary

Daily Weather History Graph

Daily Weather History Graph

Search for Another Location

Airport or City:

Trip Planner

Search our weather history database for the weather conditions in past years. The results will help you decide how hot, cold, wet, or windy it might be!

Date:

Astronomy

Jul. 04, 2013 Rise Set
Actual Time 5:39 AM CDT 7:53 PM CDT
Civil Twilight 5:10 AM CDT 8:21 PM CDT
Nautical Twilight 4:36 AM CDT 8:56 PM CDT
Astronomical Twilight 3:58 AM CDT 9:33 PM CDT
Moon 2:51 AM CDT (7/4) 5:00 PM CDT (7/4)
Length of Visible Light 15h 10m
Length of Day
14h 13m
Waning Crescent, 11% of the Moon is Illuminated
Jul 4
Waning Crescent
Jul 8
New
Jul 15
First Quarter
Jul 22
Full
Jul 29
Last Quarter

Hourly Weather History & Observations

Time (CDT) Temp. Dew Point Humidity Pressure Visibility Wind Dir Wind Speed Gust Speed Precip Events Conditions
12:15 AM 69.8 °F 66.2 °F 88% 30.11 in 10.0 mi ESE 5.8 mph - N/A   Mostly Cloudy
12:35 AM 69.8 °F 66.2 °F 88% 30.11 in 5.0 mi SE 10.4 mph - N/A   Overcast
12:55 AM 68.0 °F 66.2 °F 94% 30.11 in 10.0 mi SE 11.5 mph 18.4 mph N/A   Overcast
1:15 AM 68.0 °F 66.2 °F 94% 30.11 in 10.0 mi SE 5.8 mph - N/A   Overcast
1:35 AM 68.0 °F 66.2 °F 94% 30.11 in 10.0 mi SE 8.1 mph - N/A   Overcast
1:55 AM 68.0 °F 66.2 °F 94% 30.10 in 10.0 mi SE 8.1 mph - N/A   Overcast
2:15 AM 68.0 °F 66.2 °F 94% 30.10 in 10.0 mi SE 8.1 mph - N/A   Overcast
2:35 AM 68.0 °F 66.2 °F 94% 30.09 in 10.0 mi ESE 6.9 mph - N/A   Overcast
2:55 AM 68.0 °F 66.2 °F 94% 30.09 in 10.0 mi SE 5.8 mph - N/A   Overcast
3:15 AM 68.0 °F 66.2 °F 94% 30.09 in 10.0 mi ESE 6.9 mph - N/A   Overcast
3:35 AM 68.0 °F 66.2 °F 94% 30.08 in 10.0 mi ESE 6.9 mph - N/A   Overcast
3:55 AM 68.0 °F 66.2 °F 94% 30.09 in 10.0 mi ESE 6.9 mph - N/A   Overcast
4:15 AM 68.0 °F 66.2 °F 94% 30.09 in 10.0 mi SE 5.8 mph - N/A   Overcast
4:35 AM 68.0 °F 66.2 °F 94% 30.09 in 10.0 mi ESE 8.1 mph - N/A   Overcast
4:55 AM 69.8 °F 66.2 °F 88% 30.09 in 10.0 mi ESE 5.8 mph - N/A   Overcast
5:15 AM 69.8 °F 66.2 °F 88% 30.10 in 10.0 mi SE 5.8 mph - N/A   Overcast
5:35 AM 69.8 °F 66.2 °F 88% 30.10 in 10.0 mi SE 5.8 mph - N/A   Overcast
5:55 AM 69.8 °F 66.2 °F 88% 30.09 in 10.0 mi ESE 9.2 mph - N/A   Overcast
6:15 AM 69.8 °F 66.2 °F 88% 30.09 in 10.0 mi ESE 5.8 mph - N/A   Overcast
6:35 AM 69.8 °F 66.2 °F 88% 30.09 in 10.0 mi ESE 5.8 mph - N/A   Overcast
6:55 AM 69.8 °F 66.2 °F 88% 30.10 in 10.0 mi SE 4.6 mph - N/A   Overcast
7:15 AM 69.8 °F 66.2 °F 88% 30.10 in 10.0 mi ESE 4.6 mph - 0.01 in   Overcast
7:35 AM 69.8 °F 66.2 °F 88% 30.11 in 10.0 mi SE 4.6 mph - 0.02 in   Overcast
7:55 AM 69.8 °F 66.2 °F 88% 30.11 in 9.0 mi ESE 6.9 mph - 0.04 in   Overcast
8:15 AM 69.8 °F 66.2 °F 88% 30.11 in 7.0 mi SE 9.2 mph 16.1 mph 0.04 in   Overcast
8:35 AM 69.8 °F 66.2 °F 88% 30.11 in 6.0 mi ESE 8.1 mph - 0.10 in   Overcast
8:55 AM 69.8 °F 66.2 °F 88% 30.11 in 8.0 mi ESE 9.2 mph - 0.15 in   Overcast
9:15 AM 69.8 °F 66.2 °F 88% 30.11 in 5.0 mi ESE 8.1 mph 16.1 mph 0.05 in   Overcast
9:35 AM 69.8 °F 66.2 °F 88% 30.11 in 5.0 mi ESE 6.9 mph - 0.12 in   Overcast
9:55 AM 69.8 °F 68.0 °F 94% 30.11 in 7.0 mi ESE 6.9 mph - 0.23 in   Overcast
10:15 AM 69.8 °F 68.0 °F 94% 30.12 in 9.0 mi ESE 6.9 mph - 0.02 in   Overcast
10:35 AM 69.8 °F 68.0 °F 94% 30.13 in 9.0 mi SE 11.5 mph 17.3 mph 0.04 in   Overcast
10:55 AM 69.8 °F 68.0 °F 94% 30.14 in 8.0 mi SE 9.2 mph - 0.08 in   Overcast
11:15 AM 69.8 °F 68.0 °F 94% 30.14 in 8.0 mi SE 10.4 mph - 0.06 in   Overcast
11:35 AM 69.8 °F 68.0 °F 94% 30.15 in 9.0 mi SE 6.9 mph - 0.11 in   Overcast
11:55 AM 69.8 °F 68.0 °F 94% 30.14 in 9.0 mi SE 8.1 mph - 0.17 in   Mostly Cloudy
12:15 PM 69.8 °F 68.0 °F 94% 30.14 in 9.0 mi ESE 6.9 mph - 0.04 in   Overcast
12:35 PM 69.8 °F 68.0 °F 94% 30.13 in 8.0 mi SE 8.1 mph - 0.08 in   Overcast
12:55 PM 69.8 °F 68.0 °F 94% 30.11 in 10.0 mi SE 12.7 mph 17.3 mph 0.12 in   Mostly Cloudy
1:15 PM 69.8 °F 66.2 °F 88% 30.09 in 10.0 mi SE 13.8 mph 21.9 mph 0.03 in   Mostly Cloudy
1:35 PM 69.8 °F 66.2 °F 88% 30.07 in 10.0 mi SE 13.8 mph 23.0 mph 0.07 in   Mostly Cloudy
1:55 PM 69.8 °F 66.2 °F 88% 30.05 in 10.0 mi SE 12.7 mph 26.5 mph 0.08 in   Overcast
2:15 PM 69.8 °F 66.2 °F 88% 30.05 in 10.0 mi SE 18.4 mph 28.8 mph 0.02 in   Overcast
2:35 PM 69.8 °F 66.2 °F 88% 30.03 in 10.0 mi SE 15.0 mph 29.9 mph 0.04 in   Overcast
2:55 PM 69.8 °F 66.2 °F 88% 30.01 in 10.0 mi SE 10.4 mph - 0.05 in   Overcast
3:15 PM 69.8 °F 66.2 °F 88% 30.03 in 10.0 mi South 4.6 mph 19.6 mph 0.01 in   Overcast
3:35 PM 69.8 °F 64.4 °F 83% 30.03 in 10.0 mi SSE 3.5 mph 16.1 mph 0.01 in   Overcast
3:55 PM 69.8 °F 64.4 °F 83% 30.04 in 10.0 mi South 24.2 mph 40.3 mph 0.01 in   Overcast
4:15 PM 69.8 °F 66.2 °F 88% 30.05 in 10.0 mi South 13.8 mph 26.5 mph 0.01 in   Overcast
4:35 PM 68.0 °F 66.2 °F 94% 30.05 in 10.0 mi South 13.8 mph 24.2 mph 0.02 in   Overcast
4:55 PM 69.8 °F 66.2 °F 88% 30.05 in 10.0 mi South 15.0 mph 21.9 mph 0.02 in   Overcast
5:15 PM 69.8 °F 66.2 °F 88% 30.06 in 10.0 mi South 9.2 mph 20.7 mph N/A   Overcast
5:35 PM 69.8 °F 66.2 °F 88% 30.07 in 10.0 mi South 8.1 mph - N/A   Overcast
5:55 PM 69.8 °F 66.2 °F 88% 30.07 in 10.0 mi SSE 5.8 mph - N/A   Overcast
6:15 PM 69.8 °F 66.2 °F 88% 30.07 in 8.0 mi SSE 4.6 mph - N/A   Overcast
6:35 PM 69.8 °F 66.2 °F 88% 30.08 in 5.0 mi South 4.6 mph - 0.01 in   Overcast
6:55 PM 69.8 °F 66.2 °F 88% 30.08 in 10.0 mi SSE 4.6 mph - 0.01 in   Overcast
7:15 PM 69.8 °F 66.2 °F 88% 30.08 in 10.0 mi SE 4.6 mph - N/A   Overcast
7:35 PM 69.8 °F 66.2 °F 88% 30.08 in 10.0 mi SE 4.6 mph - N/A   Overcast
7:55 PM 69.8 °F 66.2 °F 88% 30.09 in 10.0 mi SE 5.8 mph - N/A   Mostly Cloudy
8:15 PM 69.8 °F 66.2 °F 88% 30.09 in 10.0 mi SE 4.6 mph - N/A   Mostly Cloudy
8:35 PM 69.8 °F 66.2 °F 88% 30.09 in 10.0 mi East 5.8 mph - N/A   Mostly Cloudy
8:55 PM 69.8 °F 66.2 °F 88% 30.11 in 10.0 mi SE 4.6 mph - N/A   Overcast
9:15 PM 69.8 °F 66.2 °F 88% 30.12 in 10.0 mi South 9.2 mph - N/A   Overcast
9:35 PM 69.8 °F 66.2 °F 88% 30.13 in 10.0 mi SSE 9.2 mph - N/A   Overcast
9:55 PM 68.0 °F 66.2 °F 94% 30.14 in 10.0 mi SSE 8.1 mph - N/A   Overcast
10:15 PM 68.0 °F 66.2 °F 94% 30.14 in 8.0 mi SSE 9.2 mph - N/A   Overcast
10:35 PM 68.0 °F 66.2 °F 94% 30.14 in 10.0 mi SSE 10.4 mph - N/A   Overcast
10:55 PM 68.0 °F 66.2 °F 94% 30.14 in 9.0 mi SSE 11.5 mph 16.1 mph 0.01 in   Overcast
11:15 PM 68.0 °F 66.2 °F 94% 30.14 in 10.0 mi SSE 11.5 mph - N/A   Overcast
11:35 PM 68.0 °F 66.2 °F 94% 30.13 in 10.0 mi SSE 11.5 mph - N/A   Overcast
11:55 PM 68.0 °F 66.2 °F 94% 30.13 in 10.0 mi SSE 9.2 mph 16.1 mph N/A   Overcast